Time,TemperatureF,DewpointF,PressureIn,WindDirection,WindDirectionDegrees,WindSpeedMPH,WindSpeedGustMPH,Humidity,HourlyPrecipIn,Conditions,Clouds,dailyrainin,SoftwareType,DateUTC
2013-04-16 00:06:00,48.2,17.5,29.67,NNE,22,8.9,-999.0,29,-99.99,,,0.00,Acu-Link.com,2013-04-16 06:06:00,
2013-04-16 00:22:00,49.3,16.8,29.68,NE,45,4.2,-999.0,27,-99.99,,,0.00,Acu-Link.com,2013-04-16 06:22:00,
2013-04-16 00:37:00,51.6,16.0,29.68,SSW,202,5.8,-999.0,24,-99.99,,,0.00,Acu-Link.com,2013-04-16 06:37:00,
2013-04-16 00:52:00,48.6,14.4,29.69,NE,45,4.2,-999.0,25,-99.99,,,0.00,Acu-Link.com,2013-04-16 06:52:00,
2013-04-16 01:07:00,45.0,16.2,29.70,South,180,2.2,-999.0,31,-99.99,,,0.00,Acu-Link.com,2013-04-16 07:07:00,
2013-04-16 01:22:00,43.2,16.8,29.69,ESE,112,5.8,-999.0,34,-99.99,,,0.00,Acu-Link.com,2013-04-16 07:22:00,
2013-04-16 01:38:00,44.1,16.9,29.69,SE,135,6.3,-999.0,33,-99.99,,,0.00,Acu-Link.com,2013-04-16 07:38:00,
2013-04-16 01:53:00,44.2,19.0,29.69,ESE,112,8.9,-999.0,36,-99.99,,,0.00,Acu-Link.com,2013-04-16 07:53:00,
2013-04-16 02:08:00,41.9,16.9,29.70,ESE,112,5.3,-999.0,36,-99.99,,,0.00,Acu-Link.com,2013-04-16 08:08:00,
2013-04-16 02:23:00,40.8,17.2,29.70,ESE,112,6.3,-999.0,38,-99.99,,,0.00,Acu-Link.com,2013-04-16 08:23:00,
2013-04-16 02:38:00,40.6,17.0,29.69,ESE,112,6.3,-999.0,38,-99.99,,,0.00,Acu-Link.com,2013-04-16 08:38:00,
2013-04-16 02:53:00,39.4,17.1,29.69,ESE,112,2.7,-999.0,40,-99.99,,,0.00,Acu-Link.com,2013-04-16 08:53:00,
2013-04-16 03:08:00,39.4,17.1,29.70,ESE,112,4.2,-999.0,40,-99.99,,,0.00,Acu-Link.com,2013-04-16 09:08:00,
2013-04-16 03:24:00,39.9,17.0,29.70,ESE,112,4.7,-999.0,39,-99.99,,,0.00,Acu-Link.com,2013-04-16 09:24:00,
2013-04-16 03:39:00,41.4,17.7,29.70,South,180,5.3,-999.0,38,-99.99,,,0.00,Acu-Link.com,2013-04-16 09:39:00,
2013-04-16 03:54:00,40.5,16.9,29.70,ESE,112,4.2,-999.0,38,-99.99,,,0.00,Acu-Link.com,2013-04-16 09:54:00,
2013-04-16 04:09:00,40.3,17.3,29.70,ESE,112,3.2,-999.0,39,-99.99,,,0.00,Acu-Link.com,2013-04-16 10:09:00,
2013-04-16 04:24:00,40.1,16.6,29.70,ESE,112,3.7,-999.0,38,-99.99,,,0.00,Acu-Link.com,2013-04-16 10:24:00,
2013-04-16 04:39:00,39.4,17.1,29.71,ESE,112,5.8,-999.0,40,-99.99,,,0.00,Acu-Link.com,2013-04-16 10:39:00,
2013-04-16 04:54:00,40.3,17.9,29.71,ESE,112,4.2,-999.0,40,-99.99,,,0.00,Acu-Link.com,2013-04-16 10:54:00,
2013-04-16 05:10:00,39.7,17.4,29.71,ESE,112,2.7,-999.0,40,-99.99,,,0.00,Acu-Link.com,2013-04-16 11:10:00,
2013-04-16 05:25:00,41.0,17.4,29.71,ESE,112,1.1,-999.0,38,-99.99,,,0.00,Acu-Link.com,2013-04-16 11:25:00,
2013-04-16 05:40:00,43.3,19.4,29.71,NNW,337,3.7,-999.0,38,-99.99,,,0.00,Acu-Link.com,2013-04-16 11:40:00,
2013-04-16 05:55:00,47.5,20.5,29.71,WSW,247,3.2,-999.0,34,-99.99,,,0.00,Acu-Link.com,2013-04-16 11:55:00,
2013-04-16 06:26:00,51.3,20.1,29.73,SW,225,11.9,-999.0,29,-99.99,,,0.00,Acu-Link.com,2013-04-16 12:26:00,
2013-04-16 06:41:00,50.7,21.2,29.73,SW,225,17.6,-999.0,31,-99.99,,,0.00,Acu-Link.com,2013-04-16 12:41:00,
2013-04-16 06:56:00,51.1,21.5,29.73,SSW,202,9.9,-999.0,31,-99.99,,,0.00,Acu-Link.com,2013-04-16 12:56:00,
2013-04-16 07:11:00,51.1,22.3,29.74,SW,225,15.0,-999.0,32,-99.99,,,0.00,Acu-Link.com,2013-04-16 13:11:00,
2013-04-16 07:27:00,53.8,22.3,29.74,SSW,202,13.5,-999.0,29,-99.99,,,0.00,Acu-Link.com,2013-04-16 13:27:00,
2013-04-16 07:42:00,54.7,21.4,29.75,South,180,13.5,-999.0,27,-99.99,,,0.00,Acu-Link.com,2013-04-16 13:42:00,
2013-04-16 07:57:00,55.6,22.2,29.75,SW,225,11.9,-999.0,27,-99.99,,,0.00,Acu-Link.com,2013-04-16 13:57:00,
2013-04-16 08:12:00,56.3,23.6,29.75,SSW,202,8.9,-999.0,28,-99.99,,,0.00,Acu-Link.com,2013-04-16 14:12:00,
2013-04-16 08:27:00,57.2,23.5,29.75,SSW,202,13.5,-999.0,27,-99.99,,,0.00,Acu-Link.com,2013-04-16 14:27:00,
2013-04-16 08:42:00,57.9,23.2,29.74,SW,225,13.5,-999.0,26,-99.99,,,0.00,Acu-Link.com,2013-04-16 14:42:00,
2013-04-16 08:57:00,58.6,21.9,29.74,SW,225,12.5,-999.0,24,-99.99,,,0.00,Acu-Link.com,2013-04-16 14:57:00,
2013-04-16 09:12:00,59.7,20.8,29.73,SW,225,11.9,-999.0,22,-99.99,,,0.00,Acu-Link.com,2013-04-16 15:12:00,
2013-04-16 09:27:00,61.2,21.0,29.73,SSW,202,8.9,-999.0,21,-99.99,,,0.00,Acu-Link.com,2013-04-16 15:27:00,
2013-04-16 09:42:00,62.2,20.6,29.72,SW,225,13.0,-999.0,20,-99.99,,,0.00,Acu-Link.com,2013-04-16 15:42:00,
2013-04-16 09:57:00,62.1,20.6,29.73,SSW,202,16.1,-999.0,20,-99.99,,,0.00,Acu-Link.com,2013-04-16 15:57:00,
2013-04-16 10:12:00,61.2,18.6,29.72,SW,225,16.6,-999.0,19,-99.99,,,0.00,Acu-Link.com,2013-04-16 16:12:00,
2013-04-16 10:27:00,62.6,18.5,29.71,SSW,202,18.1,-999.0,18,-99.99,,,0.00,Acu-Link.com,2013-04-16 16:27:00,
2013-04-16 10:42:00,64.9,19.1,29.70,West,270,18.1,-999.0,17,-99.99,,,0.00,Acu-Link.com,2013-04-16 16:42:00,
2013-04-16 10:57:00,65.1,16.3,29.69,West,270,27.9,-999.0,15,-99.99,,,0.00,Acu-Link.com,2013-04-16 16:57:00,
2013-04-16 11:12:00,68.0,21.6,29.71,WSW,247,15.5,-999.0,17,-99.99,,,0.00,Acu-Link.com,2013-04-16 17:12:00,
2013-04-16 11:27:00,66.4,17.4,29.69,SSW,202,16.6,-999.0,15,-99.99,,,0.00,Acu-Link.com,2013-04-16 17:27:00,
2013-04-16 11:42:00,68.4,19.0,29.68,SW,225,29.4,-999.0,15,-99.99,,,0.00,Acu-Link.com,2013-04-16 17:42:00,
2013-04-16 11:57:00,65.8,16.9,29.67,WSW,247,12.5,-999.0,15,-99.99,,,0.00,Acu-Link.com,2013-04-16 17:57:00,
2013-04-16 12:12:00,68.2,18.8,29.68,SSW,202,16.6,-999.0,15,-99.99,,,0.00,Acu-Link.com,2013-04-16 18:12:00,
2013-04-16 12:27:00,66.9,17.8,29.67,SSW,202,20.2,-999.0,15,-99.99,,,0.00,Acu-Link.com,2013-04-16 18:27:00,
2013-04-16 12:42:00,68.0,17.0,29.66,SW,225,24.3,-999.0,14,-99.99,,,0.00,Acu-Link.com,2013-04-16 18:42:00,
2013-04-16 12:58:00,68.0,20.1,29.67,South,180,11.9,-999.0,16,-99.99,,,0.00,Acu-Link.com,2013-04-16 18:58:00,
2013-04-16 13:13:00,68.5,20.5,29.66,SW,225,20.2,-999.0,16,-99.99,,,0.00,Acu-Link.com,2013-04-16 19:13:00,
2013-04-16 13:28:00,68.4,20.5,29.65,SSW,202,15.5,-999.0,16,-99.99,,,0.00,Acu-Link.com,2013-04-16 19:28:00,
2013-04-16 13:43:00,69.1,19.5,29.65,SSW,202,24.8,-999.0,15,-99.99,,,0.00,Acu-Link.com,2013-04-16 19:43:00,
2013-04-16 13:58:00,67.1,17.9,29.64,SW,225,21.2,-999.0,15,-99.99,,,0.00,Acu-Link.com,2013-04-16 19:58:00,
2013-04-16 14:13:00,71.4,18.0,29.63,SSW,202,17.6,-999.0,13,-99.99,,,0.00,Acu-Link.com,2013-04-16 20:13:00,
2013-04-16 14:28:00,69.8,18.5,29.62,SSW,202,18.1,-999.0,14,-99.99,,,0.00,Acu-Link.com,2013-04-16 20:28:00,
2013-04-16 14:43:00,67.1,16.3,29.62,SW,225,16.6,-999.0,14,-99.99,,,0.00,Acu-Link.com,2013-04-16 20:43:00,
2013-04-16 14:58:00,73.0,17.4,29.62,South,180,24.3,-999.0,12,-99.99,,,0.00,Acu-Link.com,2013-04-16 20:58:00,
2013-04-16 15:13:00,68.2,15.5,29.61,SSW,202,24.3,-999.0,13,-99.99,,,0.00,Acu-Link.com,2013-04-16 21:13:00,
2013-04-16 15:29:00,67.6,16.7,29.60,SW,225,10.4,-999.0,14,-99.99,,,0.00,Acu-Link.com,2013-04-16 21:29:00,
2013-04-16 15:44:00,70.3,17.1,29.59,SSW,202,15.0,-999.0,13,-99.99,,,0.00,Acu-Link.com,2013-04-16 21:44:00,
2013-04-16 15:59:00,67.8,15.2,29.58,SSW,202,17.1,-999.0,13,-99.99,,,0.00,Acu-Link.com,2013-04-16 21:59:00,
2013-04-16 16:14:00,67.8,15.2,29.58,South,180,11.9,-999.0,13,-99.99,,,0.00,Acu-Link.com,2013-04-16 22:14:00,
2013-04-16 16:29:00,68.0,13.5,29.58,SSW,202,21.7,-999.0,12,-99.99,,,0.00,Acu-Link.com,2013-04-16 22:29:00,
2013-04-16 16:44:00,70.2,18.8,29.56,South,180,22.2,-999.0,14,-99.99,,,0.00,Acu-Link.com,2013-04-16 22:44:00,
2013-04-16 16:59:00,67.1,17.9,29.55,South,180,14.5,-999.0,15,-99.99,,,0.00,Acu-Link.com,2013-04-16 22:59:00,
2013-04-16 17:14:00,67.6,18.3,29.55,SSE,157,17.6,-999.0,15,-99.99,,,0.00,Acu-Link.com,2013-04-16 23:14:00,
2013-04-16 17:29:00,68.5,17.4,29.56,SE,135,14.5,-999.0,14,-99.99,,,0.00,Acu-Link.com,2013-04-16 23:29:00,
2013-04-16 17:44:00,67.8,18.5,29.56,SSE,157,20.7,-999.0,15,-99.99,,,0.00,Acu-Link.com,2013-04-16 23:44:00,
2013-04-16 17:59:00,69.4,18.1,29.56,SSW,202,17.6,-999.0,14,-99.99,,,0.00,Acu-Link.com,2013-04-16 23:59:00,
2013-04-16 18:14:00,67.8,20.0,29.56,ESE,112,19.7,-999.0,16,-99.99,,,0.00,Acu-Link.com,2013-04-17 00:14:00,
2013-04-16 18:29:00,67.5,11.2,29.57,SSW,202,9.9,-999.0,11,-99.99,,,0.00,Acu-Link.com,2013-04-17 00:29:00,
2013-04-16 18:45:00,67.5,9.0,29.57,SW,225,14.5,-999.0,10,-99.99,,,0.00,Acu-Link.com,2013-04-17 00:45:00,
2013-04-16 19:00:00,64.0,19.7,29.59,SSE,157,7.3,-999.0,18,-99.99,,,0.00,Acu-Link.com,2013-04-17 01:00:00,
2013-04-16 19:15:00,63.1,20.2,29.60,SSE,157,7.8,-999.0,19,-99.99,,,0.00,Acu-Link.com,2013-04-17 01:15:00,
2013-04-16 19:30:00,63.1,16.2,29.59,South,180,8.9,-999.0,16,-99.99,,,0.00,Acu-Link.com,2013-04-17 01:30:00,
2013-04-16 19:45:00,62.1,16.8,29.60,SE,135,7.3,-999.0,17,-99.99,,,0.00,Acu-Link.com,2013-04-17 01:45:00,
2013-04-16 20:00:00,62.6,12.8,29.60,South,180,15.0,-999.0,14,-99.99,,,0.00,Acu-Link.com,2013-04-17 02:00:00,
2013-04-16 20:15:00,63.0,9.6,29.61,SSE,157,11.4,-999.0,12,-99.99,,,0.00,Acu-Link.com,2013-04-17 02:15:00,
2013-04-16 20:30:00,62.2,9.0,29.61,SSW,202,12.5,-999.0,12,-99.99,,,0.00,Acu-Link.com,2013-04-17 02:30:00,
2013-04-16 20:45:00,62.4,9.1,29.62,SSW,202,20.7,-999.0,12,-99.99,,,0.00,Acu-Link.com,2013-04-17 02:45:00,
2013-04-16 21:00:00,61.7,8.6,29.63,SSW,202,9.4,-999.0,12,-99.99,,,0.00,Acu-Link.com,2013-04-17 03:00:00,
2013-04-16 21:15:00,61.9,8.8,29.65,SSW,202,17.1,-999.0,12,-99.99,,,0.00,Acu-Link.com,2013-04-17 03:15:00,
2013-04-16 21:30:00,62.4,9.1,29.65,SSW,202,22.2,-999.0,12,-99.99,,,0.00,Acu-Link.com,2013-04-17 03:30:00,
2013-04-16 21:45:00,61.5,8.4,29.66,SW,225,9.9,-999.0,12,-99.99,,,0.00,Acu-Link.com,2013-04-17 03:45:00,
2013-04-16 22:00:00,61.2,8.2,29.65,WSW,247,9.4,-999.0,12,-99.99,,,0.00,Acu-Link.com,2013-04-17 04:00:00,
2013-04-16 22:15:00,61.0,8.1,29.66,South,180,13.5,-999.0,12,-99.99,,,0.00,Acu-Link.com,2013-04-17 04:15:00,
2013-04-16 22:30:00,59.9,7.2,29.66,SSW,202,10.9,-999.0,12,-99.99,,,0.00,Acu-Link.com,2013-04-17 04:30:00,
2013-04-16 22:45:00,59.5,6.9,29.66,South,180,15.5,-999.0,12,-99.99,,,0.00,Acu-Link.com,2013-04-17 04:45:00,
2013-04-16 23:00:00,60.3,5.6,29.65,SSW,202,15.5,-999.0,11,-99.99,,,0.00,Acu-Link.com,2013-04-17 05:00:00,
2013-04-16 23:15:00,58.8,4.4,29.66,WSW,247,7.8,-999.0,11,-99.99,,,0.00,Acu-Link.com,2013-04-17 05:15:00,
2013-04-16 23:30:00,58.8,6.3,29.66,SSW,202,17.1,-999.0,12,-99.99,,,0.00,Acu-Link.com,2013-04-17 05:30:00,
2013-04-16 23:45:00,57.9,5.6,29.66,South,180,7.8,-999.0,12,-99.99,,,0.00,Acu-Link.com,2013-04-17 05:45:00,